OBJECT G, 40905

Orbit data source: Space-Track

You're viewing an Uncataloged Satellite

Recently launched and/or uncataloged satellites may have evolving metadata. Metadata may include but not limited to: Owner, Maufacturer, Bus, Motor, and Mission.

OBJECT G, 40905 is a Chinese satellite in SSO that was launched on Sat, 19 Sep 2015 UTC via a CHANG ZHENG 6 launch vehicle from the Taiyaun Space Center, China (TSC). Unknown objects in Earth's orbit typically refer to objects detected orbiting the Earth but have not yet been identified or cataloged. These objects could be anything from previously untracked satellites, spent rocket stages, debris from satellite collisions, or even natural meteoroids temporarily captured by Earth's gravity.

Loading next visibility...
Identifier
40905, 2015-049G
Orbit
SSO
Country
Flag of CNCN / PRC
Related business
None
Manufacturer
Unknown
Mission
Non-operational Amateur Tech/Com
Bus & Motor
Unknown
Mass
Unknown
Launch date (UTC)
2015-09-19 (10 years ago)
Launch vehicle
CHANG ZHENG 6
Launch site
Taiyaun Space Center, China (TSC)
Object type
Unknown
Shape & HBR
Box, 0.2 m
Radar Cross Section
0.240 m², Medium (>0.1 m² and < 1m²)

Expand to show TLE details & history
Last TLE update: 8 hours ago

TLE from 8 hours ago
0 OBJECT G
1 40905U 15049G   26061.93050281  .00036100  00000-0  47115-3 0  9991
2 40905  97.4729 100.1653 0004440 234.8656 125.2184 15.58598515579859
Epoch: 2026-03-02T22:19Z
TLE epoch observation values (Epoch: 2026-03-02T22:19:55.442Z)
Latitude
-0.00005°
Longitude
-35.53255°
Altitude
396.588 km
Speed
7.671 km/s
True Right ascension
06h 40m 39s
True Declination
0° 00' 00"
Sunlit
Object was in full shadow at epoch
Visualization orbit readout
Latitude
Unknown
Longitude
Unknown
Altitude
Unknown
Speed
Unknown
Apparent Right ascension
Unknown
Apparent Declination
Unknown
Sunlit
N/A
Visualization observer readout
Local Sidereal Time
09:35:17
Azimuth
Unknown
Elevation
Unknown
Doppler factor
Unknown
Orbital elements
Apogee altitude
391.634 km
Perigee altitude
385.625 km
Semi-major axis
6,766.767 km
Eccentricity
0.00044
Inclination
97.4729°
RAAN
100.1653°
Arg. of periapsis
234.8656°
True anomaly
125.25995°
Mean anomaly
125.2184°
Eccentric anomaly
125.23918°
Mean motion
3.89916 °/min
Orbital period
92.33 mins
BSTAR
0.00047115
Loading maneuver chart data...
Computing Atmospheric mass density...
Loading historical data...
Loading historical data...
Loading historical data...
Loading historical data...
Loading historical data...
Loading historical data...
Loading historical data...

Documentation

Showing up to 5 results
|